Theta_e
354 354 351 344 337 342 340 339 346 343 342 342 355 357 355 354 352 354 352 350 349 350
357 354 349 342 342 341 335 337 340 341 341 342 346 357 356 353 352 353 352 352 351 350
359 358 348 341 338 339 336 335 339 340 341 339 343 356 356 354 355 352 352 354 352 351
359 359 349 340 338 337 336 336 333 334 339 337 349 356 355 354 354 351 351 351 349 349
358 359 356 340 339 339 337 335 336 335 336 337 352 357 356 353 356 352 350 350 349 349
356 357 355 349 341 340 339 338 337 335 336 349 356 357 355 354 353 352 352 351 350 351
355 354 354 354 355 347 345 344 348 354 357 356 358 356 356 351 354 353 355 354 351 349
355 356 355 356 354 360 357 357 358 357 359 358 359 357 353 356 354 351 348 349 349 350
357 358 357 360 359 357 359 356 356 357 358 355 357 348 355 356 350 351 347 343 344 345
359 359 359 359 361 358 357 358 356 357 357 351 345 341 346 353 349 347 344 342 342 345
359 359 363 360 358 362 358 356 356 355 355 346 339 337 341 348 348 345 345 343 342 339
361 359 362 361 359 364 357 357 356 358 349 340 334 328 329 340 349 347 345 334 332 333
363 361 361 362 362 364 357 357 357 356 348 338 330 323 325 334 342 343 341 326 323 328
363 363 364 365 365 363 360 357 354 349 344 340 329 319 322 329 334 335 340 330 323 320
Wind_Speed
8 6 5 8 9 7 8 7 9 6 3 9 5 5 5 3 4 4 5 6 4 2
7 7 9 12 9 7 7 7 8 8 1 4 13 6 5 3 5 5 5 5 5 3
8 7 12 9 10 9 5 3 6 3 3 5 11 6 4 2 5 4 4 4 3 4
8 8 11 9 8 8 4 6 6 5 5 8 8 4 3 5 4 5 5 2 1 3
10 10 11 11 10 8 8 6 7 7 6 7 9 7 6 6 4 5 3 2 1 3
11 10 10 16 14 12 11 10 8 9 9 8 6 6 6 5 2 2 2 1 1 3
11 8 9 9 13 13 8 8 8 8 9 6 5 5 5 3 2 2 3 3 2 4
13 10 8 9 7 8 12 9 8 7 6 5 4 4 4 5 4 2 6 5 5 6
14 12 10 8 8 8 8 8 7 7 7 5 2 3 9 7 5 6 5 4 4 3
13 13 12 9 9 10 9 7 7 6 6 7 5 3 10 9 6 6 4 3 3 3
13 13 12 11 9 7 6 7 6 7 7 8 4 3 6 9 6 5 5 5 4 5
14 14 12 12 10 7 7 5 6 6 9 8 6 3 5 5 4 5 6 5 5 6
14 15 14 12 10 6 6 6 5 7 9 9 7 6 9 7 3 3 6 5 6 8
13 14 13 11 8 8 7 6 6 9 7 7 8 5 8 11 5 5 6 4 3 3
Wind_Direction
170 147 155 125 121 148 152 160 162 264 318 346 254 206 191 181 225 231 225 237 247 263
164 149 122 133 154 175 164 164 165 192 170 294 296 217 188 195 233 239 220 238 243 238
158 164 127 149 154 184 201 142 137 146 188 251 278 218 172 203 252 212 241 233 254 259
159 165 138 153 167 190 153 153 189 184 197 227 249 213 203 228 248 221 242 225 344 318
159 168 151 163 187 192 164 198 205 207 221 224 245 195 198 224 222 217 250 281 330 279
168 173 179 166 182 196 179 185 191 192 213 236 202 191 186 206 223 149 108 112 211 264
172 176 179 187 169 182 187 177 190 198 198 198 204 172 174 167 177 200 227 226 289 344
172 175 172 184 183 164 174 181 177 185 198 192 183 176 171 157 181 140 71 68 41 34
169 178 178 168 168 165 168 173 176 187 182 201 143 280 168 159 125 107 90 60 32 73
165 174 175 168 167 179 181 158 174 184 170 117 130 208 129 118 128 108 124 115 78 69
170 170 166 172 178 176 159 164 168 174 143 132 155 207 142 113 130 132 133 138 133 102
167 167 167 175 181 173 157 161 170 157 144 145 152 137 78 120 156 175 140 97 60 92
163 166 173 174 173 169 165 158 158 134 145 151 140 162 146 149 196 184 138 107 83 79
164 165 166 168 166 157 151 147 130 131 143 140 152 172 147 147 117 124 142 136 128 129